Other Public Products
Issued by NWS Grand Forks, ND

Home | Current Version | Previous Version | Text Only | Print | Product List | Glossary Off
Versions: 1 2 3 4 5 6 7 8 9 10 11 12 13 14 15 16 17 18 19 20 21 22 23 24 25 26 27 28 29 30 31 32 33 34 35 36 37 38 39 40 41 42 43 44 45 46 47 48 49 50

000
FPUS83 KFGF 212310
OPUFGF
PRAIRIE TO PINES WEATHER ROUNDUP
NATIONAL WEATHER SERVICE EASTERN NORTH DAKOTA/GRAND FORKS ND
600 PM CDT THU MAY 21 2015

 **SATELLITE DATA USED TO AUGMENT SKY COVER AT AUTOMATED STATIONS**
 *****  WEATHER ACROSS EASTERN NORTH DAKOTA  *****

CITY           SKY/WX    TMP DP  RH WIND       PRES   REMARKS
GRAND FORKS    SUNNY     68  35  29 N8        30.11F
GRAND FORKS AF SUNNY     68  34  29 N9        30.12F
GRAND CITY NWS   N/A     64 N/A N/A N9          N/A
BUXTON         NOT AVBL
DEVILS LAKE    SUNNY     70  28  21 NE5       30.12S
FARGO          SUNNY     70  36  28 NW14      30.10F
WAHPETON ARPT  CLEAR     68  30  24 N12G17    30.11S
$$

 *****  WEATHER ACROSS CENTRAL AND WESTERN NORTH DAKOTA  *****

CITY           SKY/WX    TMP DP  RH WIND       PRES   REMARKS
JAMESTOWN      SUNNY     71  33  24 CALM      30.11F
BISMARCK       PTSUNNY   72  40  31 CALM      30.11S
MINOT          SUNNY     73  33  23 VRB6      30.11S
MINOT AFB      SUNNY     74  31  20 NE7       30.10S
GARRISON         N/A     71  34  25 SW6       30.11S
WILLISTON      SUNNY     75  29  18 VRB5      30.11F
DICKINSON      PTSUNNY   71  31  22 E7        30.12F
HETTINGER      SUNNY     67  32  27 SE15      30.15F
$$

 *****  OTHER OBSERVATIONS NORTHEAST NORTH DAKOTA  *****

CITY           SKY/WX    TMP DP  RH WIND       PRES   REMARKS
WALHALLA       FAIR      66  32  28 NE10      30.13F
LANGDON        FAIR      68  32  26 N9        30.14S
CAVALIER       FAIR      66  32  28 N6        30.13S
GRAFTON        FAIR      66  36  32 N9        30.13S
CANDO          FAIR      72  30  21 N8        30.13F
FORT TOTTEN      N/A     71  29  21 NE3       29.95S
ROLLA          FAIR      68  28  22 N12       30.15S
RUGBY          NOT AVBL
 ***** THE ABOVE OBSERVATIONS ARE NON NWS ARE NOT QUALITY
        CONTROLLED AND MAY MIS-REPORT RAIN FOR SNOW...
$$

 *****  OTHER OBSERVATIONS SOUTHEAST NORTH DAKOTA *****

CITY           SKY/WX    TMP DP  RH WIND       PRES   REMARKS
COOPERSTOWN    NOT AVBL
VALLEY CITY    FAIR      70  32  24 NW6       30.12S
OAKES            N/A     72  37  28 N10       30.11S
GWINNER        NOT AVBL
SHEYENNE NWR     N/A     71  32  24 NE7       29.95
BUFFALO        NOT AVBL
WYNDMERE         N/A     70  30  23 N8          N/A
 ***** THE ABOVE OBSERVATIONS ARE NON NWS ARE NOT QUALITY
       CONTROLLED AND MAY MIS-REPORT RAIN FOR SNOW...
$$

  *****  WEATHER ACROSS NORTHERN MINNESOTA  *****

CITY           SKY/WX    TMP DP  RH WIND       PRES   REMARKS
FLAG ISLAND    SUNNY     61  32  33 N10       30.08F
WARROAD        SUNNY     61  37  41 E6        30.10F
ROSEAU         SUNNY     68  30  24 NE5       30.09S
HALLOCK        SUNNY     66  32  28 N12       30.12S
THF RVR FALLS  SUNNY     66  32  28 N12       30.11S
HALSTAD        NOT AVBL
FOSSTON        SUNNY     68  32  26 NW6       30.11S
BAUDETTE       MOSUNNY   63  31  30 N13       30.09F
WASKISH        SUNNY     63  36  36 N10       30.09S
CROOKSTON      SUNNY     68  36  30 N13       30.11F
$$
  *****  WEATHER ACROSS CENTRAL AND WEST MINNESOTA  *****

CITY           SKY/WX    TMP DP  RH WIND       PRES   REMARKS
BEMIDJI        SUNNY     65  32  28 N13       30.09S
PARK RAPIDS    SUNNY     68  29  23 N9        30.07S
WADENA         SUNNY     66  36  32 NW15      30.07S
DETROIT LAKES  SUNNY     68  32  26 N6G20     30.11S
MOORHEAD       SUNNY     68  36  30 N9        30.11S
FERGUS FALLS   SUNNY     68  34  28 N9G16     30.09F
ELBOW LAKE     FAIR      67  34  30 NW10G18   30.09F
MORRIS MN      SUNNY     72  34  25 NW17      30.08F
STAPLES        SUNNY     68  28  22 NW9       30.07S
WHEATON        SUNNY     66  28  24 NW13G21   30.12S
$$
  *****  WEATHER ELSEWHERE ACROSS MINNESOTA  *****

CITY           SKY/WX    TMP DP  RH WIND       PRES   REMARKS
DULUTH         SUNNY     67  24  19 NW15G24   30.01S
INTRNTL FALLS  SUNNY     63  28  26 N13       30.07S
ELY            SUNNY     63  25  23 N6G17     30.03S
CLOQUET        SUNNY     66  21  18 W9        30.02S
BRAINERD       SUNNY     67  32  27 N14       30.06F
HIBBING        SUNNY     65  27  23 NW21      30.04R
ALEXANDRIA     SUNNY     67  29  24 N15       30.09F
SAINT CLOUD    SUNNY     70  31  23 N10       30.04F
MINNEAPOLIS    SUNNY     72  27  18 NW14      30.02S
$$

  *****  WEATHER ACROSS SOUTH DAKOTA  *****

CITY           SKY/WX    TMP DP  RH WIND       PRES   REMARKS
SIOUX FALLS    PTSUNNY   73  36  25 N18G25    30.11F
BROOKINGS      MOSUNNY   73  34  23 NW15G22   30.11F
WATERTOWN      SUNNY     71  37  28 N17       30.11F
HURON          MOSUNNY   75  35  23 NW8       30.11F
SISSETON         N/A     73  30  20 N14       30.09F
ABERDEEN       SUNNY     76  38  25 N12       30.10F
MITCHELL       MOSUNNY   74  36  25 W12       30.13F
PIERRE         SUNNY     71  32  23 CALM      30.13F
MOBRIDGE       SUNNY     74  28  18 SW8       30.10F
RAPID CITY     SUNNY     63  35  35 S12G22    30.15F
$$

  *****  SOME WEATHER IN NEARBY STATES *****

CITY           SKY/WX    TMP DP  RH WIND       PRES   REMARKS
GLASGOW MT     SUNNY     72  30  21 SE18G28   30.07F
GREAT FALLS MT MOSUNNY   70  38  31 E10       29.94F
CHEYENNE WY    CLOUDY    49  40  71 CALM      30.15F
SCOTTSBLUFF NE CLOUDY    56  43  61 SE10      30.16F
OMAHA NE       MOSUNNY   73  39  29 W12       30.15F
DES MOINES IA  MOSUNNY   77  36  22 W18       30.08F
DAVENPORT IA   SUNNY     72  36  26 W13G23    30.05F
CHICAGO IL     MOSUNNY   67  35  30 W10G20    30.01F
EAU CLAIRE WI  SUNNY     71  35  26 N10G21    29.97S
LA CROSSE WI   SUNNY     74  37  26 NW12      29.97R
$$

  *****  SOME NATIONAL WEATHER *****

CITY           SKY/WX    TMP DP  RH WIND       PRES   REMARKS
LA GUARDIA NY  CLOUDY    56  45  66 S14       29.92S
RALEIGH NC     MOSUNNY   64  57  78 NE8       29.88R
ATLANTA GA     MOSUNNY   72  55  55 NW17      29.99R
NEW ORLEANS LA TSTM      73  69  87 NW9       30.04S
OKLAHOMA CITY  PTSUNNY   66  47  50 E8        30.17F
ALBUQUERQUE NM LGT RAIN  57  44  62 E24G35    30.02F
SALT LAKE CITY CLOUDY    60  44  55 W14       29.90S
LOS ANGELES CA MOSUNNY   64  50  60 W16       29.95F
BOISE ID       CLOUDY    73  45  36 VRB3      29.81F
SEATTLE WA     PTSUNNY   74  54  49 S8        29.84S
$$

*** WEATHER ACROSS MANITOBA...SASKATCHEWAN AND ONTARIO ***
                ***ONTARIO***

CITY           SKY/WX    TMP DP  RH WIND       PRES   REMARKS
GERALDTON      MOSUNNY   45  21  39 N14G22    30.02R
THUNDER BAY    MOSUNNY   61  16  17 N9G21     29.99S
SIOUX LOOKOUT  MOSUNNY   57  19  23 N8G17     30.07S
TORONTO        PTSUNNY   64  28  25 W14G22    29.84R
BIG TROUT LK   SUNNY     39  21  48 N8        30.15F
PICKLE LAKE    MOSUNNY   46  14  27 N10G18    30.08S
DRYDEN         SUNNY     59  25  27 NW10G18   30.07F
KENORA         PTSUNNY   61  25  25 NW12G18   30.10S
$$
                *** MANITOBA***

CITY           SKY/WX    TMP DP  RH WIND       PRES   REMARKS
BRANDON        MOSUNNY   72  37  28 S10G18    30.11F
DAUPHIN        SUNNY     75  32  20 E12       30.07F
ISLAND LAKE    MOSUNNY   55  18  22 NE6       30.14F
PILOT MOUND      N/A     66  28  24 N8          N/A
THE PAS        MOSUNNY   72  37  28 SE15G23   30.01F
THOMPSON       MOSUNNY   63  25  23 S7        30.09F
WINNIPEG       PTSUNNY   66  39  37 CALM      30.12F
LYNN LAKE      SUNNY     68  30  24 SE9       30.01F
CHURCHILL      MOSUNNY   45  16  31 E7        30.16F
$$
                ***SASKATCHEWAN***

CITY           SKY/WX    TMP DP  RH WIND       PRES   REMARKS
ESTEVAN        PTSUNNY   77  25  14 N7        30.11F
KINDERSLEY     SUNNY     75  21  13 S17G25    30.04F
LLOYDMINSTER   SUNNY     73  23  15 S7G21     30.03F
PRINCE ALBERT  MOSUNNY   77  28  16 S9        30.05S
REGINA         MOSUNNY   75  32  20 NE6       30.10F
YORKTON        SUNNY     72  36  26 NW5       30.08S


USA.gov is the U.S. government's official web portal to all federal, state and local government web resources and services.